Weather History for Waterville, ME

Change the Weather History Date:

Friday, November 22, 2013

  Actual Average Record
Temperature  
Mean Temperature 30 °F -  
Max Temperature 37 °F 42 °F 64 °F (1992)
Min Temperature 24 °F 25 °F 6 °F (1978)
Degree Days  
Heating Degree Days 34    
Moisture  
Dew Point 26 °F    
Average Humidity 77    
Maximum Humidity 93    
Minimum Humidity 59    
Precipitation  
Precipitation 0.00 in - - ()
Sea Level Pressure  
Sea Level Pressure 30.05 in    
Wind  
Wind Speed 1 mph (SW)    
Max Wind Speed 8 mph    
Max Gust Speed -    
Visibility 9 miles    
Events      
Averages and records for this station are not official NWS values.
T = Trace of Precipitation, MM = Missing Value Source: NWS Daily Summary

Daily Weather History Graph

Daily Weather History Graph

Search for Another Location

Airport:

Trip Planner

Search our weather history database for the weather conditions in past years. The results will help you decide how hot, cold, wet, or windy it might be!

Date:

Astronomy

Nov. 22, 2013 Rise Set
Actual Time 6:44 AM EST 4:04 PM EST
Civil Twilight 6:12 AM EST 4:37 PM EST
Nautical Twilight 5:36 AM EST 5:12 PM EST
Astronomical Twilight 5:01 AM EST 5:47 PM EST
Moon 8:37 PM EST (11/22) 10:23 AM EST (11/22)
Length of Visible Light 10h 24m
Length of Day
9h 20m
Waning Gibbous, 78% of the Moon is Illuminated
Nov 22
Waning Gibbous
Nov 25
Last Quarter
Dec 2
New
Dec 9
First Quarter
Dec 17
Full

Hourly Weather History & Observations

Time (EST) Temp. Windchill Dew Point Humidity Pressure Visibility Wind Dir Wind Speed Gust Speed Precip Events Conditions
12:15 AM 30.2 °F - 19.4 °F 64% 30.28 in 10.0 mi Calm Calm - N/A   Clear
12:35 AM 28.4 °F 23.3 °F 17.6 °F 64% 30.27 in 10.0 mi SW 4.6 mph - N/A   Clear
12:55 AM 28.4 °F - 17.6 °F 64% 30.27 in 10.0 mi Calm Calm - N/A   Clear
1:15 AM 28.4 °F - 17.6 °F 64% 30.27 in 10.0 mi Calm Calm - N/A   Clear
1:35 AM 28.4 °F - 17.6 °F 64% 30.27 in 10.0 mi Calm Calm - N/A   Clear
1:55 AM 28.4 °F - 15.8 °F 59% 30.26 in 10.0 mi Calm Calm - N/A   Clear
2:15 AM 24.8 °F - 17.6 °F 74% 30.26 in 10.0 mi Calm Calm - N/A   Clear
2:35 AM 24.8 °F 20.5 °F 17.6 °F 74% 30.25 in 10.0 mi NNW 3.5 mph - N/A   Clear
2:55 AM 26.6 °F - 17.6 °F 69% 30.25 in 10.0 mi Calm Calm - N/A   Partly Cloudy
3:15 AM 26.6 °F - 17.6 °F 69% 30.24 in 10.0 mi Calm Calm - N/A   Mostly Cloudy
3:35 AM 26.6 °F - 17.6 °F 69% 30.24 in 10.0 mi Calm Calm - N/A   Overcast
3:55 AM 24.8 °F - 17.6 °F 74% 30.24 in 10.0 mi Calm Calm - N/A   Scattered Clouds
4:15 AM 26.6 °F 22.6 °F 17.6 °F 69% 30.24 in 10.0 mi WSW 3.5 mph - N/A   Partly Cloudy
4:35 AM 26.6 °F 22.6 °F 17.6 °F 69% 30.23 in 10.0 mi SW 3.5 mph - N/A   Clear
4:55 AM 28.4 °F - 17.6 °F 64% 30.22 in 10.0 mi Calm Calm - N/A   Clear
5:15 AM 28.4 °F - 17.6 °F 64% 30.21 in 10.0 mi Calm Calm - N/A   Clear
5:35 AM 26.6 °F - 17.6 °F 69% 30.20 in 10.0 mi Calm Calm - N/A   Clear
5:55 AM 26.6 °F - 17.6 °F 69% 30.20 in 10.0 mi Calm Calm - N/A   Scattered Clouds
6:15 AM 26.6 °F - 19.4 °F 74% 30.19 in 10.0 mi Calm Calm - N/A   Mostly Cloudy
6:35 AM 26.6 °F - 21.2 °F 80% 30.19 in 10.0 mi Calm Calm - N/A   Overcast
6:55 AM 28.4 °F - 19.4 °F 69% 30.18 in 10.0 mi Calm Calm - N/A   Overcast
7:15 AM 28.4 °F - 19.4 °F 69% 30.18 in 10.0 mi Calm Calm - N/A   Overcast
7:35 AM 28.4 °F - 21.2 °F 74% 30.18 in 10.0 mi Calm Calm - N/A   Overcast
7:55 AM 28.4 °F - 21.2 °F 74% 30.18 in 10.0 mi Calm Calm - N/A   Overcast
8:15 AM 30.2 °F - 21.2 °F 69% 30.18 in 10.0 mi Calm Calm - N/A   Scattered Clouds
8:35 AM 30.2 °F - 21.2 °F 69% 30.17 in 10.0 mi Calm Calm - N/A   Partly Cloudy
8:55 AM 30.2 °F - 23.0 °F 75% 30.16 in 10.0 mi Calm Calm - N/A   Partly Cloudy
9:15 AM 32.0 °F - 24.8 °F 75% 30.16 in 10.0 mi Calm Calm - N/A   Partly Cloudy
9:35 AM 33.8 °F - 24.8 °F 70% 30.15 in 10.0 mi Calm Calm - N/A   Mostly Cloudy
9:55 AM 33.8 °F - 26.6 °F 75% 30.14 in 7.0 mi Calm Calm - N/A   Mostly Cloudy
10:15 AM 35.6 °F 32.8 °F 26.6 °F 70% 30.12 in 10.0 mi SSW 3.5 mph - N/A   Mostly Cloudy
10:35 AM 35.6 °F - 24.8 °F 65% 30.11 in 8.0 mi Calm Calm - N/A   Mostly Cloudy
10:55 AM 35.6 °F - 24.8 °F 65% 30.10 in 10.0 mi Calm Calm - N/A   Overcast
11:15 AM 35.6 °F 32.8 °F 23.0 °F 60% 30.08 in 10.0 mi SSE 3.5 mph - N/A   Overcast
11:35 AM 35.6 °F 31.7 °F 23.0 °F 60% 30.08 in 10.0 mi SW 4.6 mph - N/A   Overcast
11:55 AM 37.4 °F 32.1 °F 24.8 °F 60% 30.07 in 10.0 mi WSW 6.9 mph - N/A   Overcast
12:15 PM 37.4 °F 31.4 °F 28.4 °F 70% 30.07 in 10.0 mi WSW 8.1 mph - N/A   Overcast
12:35 PM 37.4 °F 32.1 °F 30.2 °F 75% 30.05 in 10.0 mi WSW 6.9 mph - N/A   Overcast
12:55 PM 37.4 °F 32.8 °F 30.2 °F 75% 30.04 in 10.0 mi WSW 5.8 mph - N/A   Overcast
1:15 PM 37.4 °F 33.8 °F 30.2 °F 75% 30.03 in 10.0 mi WSW 4.6 mph - N/A   Overcast
1:35 PM 37.4 °F 32.8 °F 30.2 °F 75% 30.02 in 10.0 mi WSW 5.8 mph - N/A   Overcast
1:55 PM 37.4 °F 33.8 °F 30.2 °F 75% 30.01 in 10.0 mi SW 4.6 mph - N/A   Overcast
2:15 PM 37.4 °F 34.9 °F 30.2 °F 75% 30.00 in 10.0 mi SSW 3.5 mph - N/A   Overcast
2:35 PM 37.4 °F 34.9 °F 30.2 °F 75% 29.99 in 10.0 mi SSW 3.5 mph - N/A   Overcast
2:55 PM 37.4 °F - 30.2 °F 75% 29.99 in 10.0 mi Calm Calm - N/A   Overcast
3:15 PM 37.4 °F - 30.2 °F 75% 29.98 in 10.0 mi Calm Calm - N/A   Overcast
3:35 PM 37.4 °F 34.9 °F 30.2 °F 75% 29.98 in 10.0 mi SSW 3.5 mph - N/A   Overcast
3:55 PM 35.6 °F - 30.2 °F 81% 29.96 in 10.0 mi Calm Calm - N/A   Overcast
4:15 PM 35.6 °F - 30.2 °F 81% 29.95 in 10.0 mi Calm Calm - N/A   Overcast
4:35 PM 35.6 °F - 32.0 °F 87% 29.94 in 10.0 mi Calm Calm - N/A   Overcast
4:55 PM 35.6 °F - 32.0 °F 87% 29.94 in 10.0 mi Calm Calm - N/A   Overcast
5:15 PM 35.6 °F 32.8 °F 32.0 °F 87% 29.93 in 10.0 mi SW 3.5 mph - N/A   Overcast
5:35 PM 35.6 °F - 32.0 °F 87% 29.91 in 10.0 mi Calm Calm - N/A   Overcast
5:55 PM 35.6 °F - 30.2 °F 81% 29.90 in 10.0 mi Calm Calm - N/A   Overcast
6:15 PM 33.8 °F - 30.2 °F 87% 29.89 in 10.0 mi Calm Calm - N/A   Overcast
6:35 PM 33.8 °F 29.6 °F 30.2 °F 87% 29.89 in 7.0 mi SW 4.6 mph - N/A   Overcast
6:55 PM 33.8 °F - 32.0 °F 93% 29.88 in 9.0 mi Calm Calm - N/A   Overcast
7:15 PM 33.8 °F 30.8 °F 32.0 °F 93% 29.88 in 10.0 mi SSW 3.5 mph - N/A   Overcast
7:35 PM 33.8 °F 29.6 °F 32.0 °F 93% 29.87 in 10.0 mi SSW 4.6 mph - N/A   Overcast
7:55 PM 33.8 °F - 30.2 °F 87% 29.85 in 10.0 mi Calm Calm - N/A   Overcast
8:15 PM 33.8 °F - 32.0 °F 93% 29.83 in 10.0 mi Calm Calm - N/A   Mostly Cloudy
8:35 PM 33.8 °F - 30.2 °F 87% 29.83 in 7.0 mi Calm Calm - N/A   Scattered Clouds
8:55 PM 32.0 °F 28.7 °F 30.2 °F 93% 29.82 in 3.0 mi SW 3.5 mph - N/A   Partly Cloudy
9:15 PM 33.8 °F - 30.2 °F 87% 29.81 in 2.5 mi Calm Calm - N/A   Mostly Cloudy
9:35 PM 33.8 °F 30.8 °F 32.0 °F 93% 29.79 in 2.5 mi South 3.5 mph - N/A   Overcast
9:55 PM 33.8 °F 30.8 °F 32.0 °F 93% 29.79 in 1.0 mi SSW 3.5 mph - N/A   Overcast
10:15 PM 33.8 °F 29.6 °F 30.2 °F 87% 29.78 in 0.5 mi SSW 4.6 mph - N/A   Overcast
10:35 PM 33.8 °F 29.6 °F 32.0 °F 93% 29.77 in 0.5 mi SSW 4.6 mph - N/A   Overcast
10:55 PM 33.8 °F 30.8 °F 32.0 °F 93% 29.75 in 0.8 mi South 3.5 mph - N/A   Overcast
11:15 PM 33.8 °F 29.6 °F 32.0 °F 93% 29.74 in 1.2 mi SSW 4.6 mph - N/A   Overcast
11:35 PM 33.8 °F 29.6 °F 32.0 °F 93% 29.73 in 2.0 mi SSW 4.6 mph - N/A   Overcast
11:55 PM 33.8 °F 29.6 °F 32.0 °F 93% 29.73 in 1.5 mi South 4.6 mph - N/A   Overcast